Regional Weather Roundup
Issued by NWS

Home | Current Version | Previous Version | Graphics & Text | Print | Product List | Glossary On
Versions: 1 2 3 4 5 6 7 8 9 10 11 12 13 14 15 16 17 18 19 20 21 22 23 24 25 26 27 28 29 30 31 32 33 34 35 36 37 38 39 40 41 42 43 44 45 46 47 48 49 50
000
ASUS45 KCYS 011810
RWRWY

WYOMING REGIONAL WEATHER ROUNDUP
NATIONAL WEATHER SERVICE CHEYENNE WY
1100 AM MST SUN FEB 01 2015

NOTE:  "FAIR" INDICATES FEW OR NO CLOUDS BELOW 12,000 FEET
WITH NO SIGNIFICANT WEATHER AND/OR OBSTRUCTIONS TO VISIBILITY.

WYZ001-011900-
YELLOWSTONE NATIONAL PARK

CITY           SKY/WX    TMP DP  RH WIND       PRES   REMARKS
LK YELLOWSTONE   N/A     15  10  80 VRB5      30.16S WCI   8
6HR MIN TEMP:   1; 6HR MAX TEMP:  16;

W YELLOWSTONE  NOT AVBL

$$
WYZ002>013-054>058-071-098>099-011900-
NORTHERN WYOMING

CITY           SKY/WX    TMP DP  RH WIND       PRES   REMARKS
JACKSON        SUNNY     14  10  85 CALM      30.20S
CODY           CLOUDY    21  14  73 S8        30.19F WCI  12
GREYBULL       FAIR      17   9  70 E5        30.31R WCI  10
6HR MIN TEMP:  10; 6HR MAX TEMP:  18;

WORLAND        CLOUDY    16   9  74 E6        30.30S WCI   7
6HR MIN TEMP:  12; 6HR MAX TEMP:  16; 6HR PCP: TRACE;

SHERIDAN       FAIR      18   5  57 E3        30.28F
6HR MIN TEMP:   9; 6HR MAX TEMP:  19;

BUFFALO        FAIR      15   6  67 VRB5      30.23F WCI   8
6HR MIN TEMP:   6; 6HR MAX TEMP:  16;

GILLETTE       FAIR      12   3  67 NW7       30.27F WCI   1
6HR MIN TEMP:   5; 6HR MAX TEMP:  12; 6HR PCP: TRACE;

HULETT           N/A    N/A N/A N/A MISG        N/A
NEWCASTLE      FAIR      12   0  57 NW14G20   30.28F WCI  -3

$$
WYZ014>020-022>026-101>103-011900-
CENTRAL WYOMING

CITY           SKY/WX    TMP DP  RH WIND       PRES   REMARKS
BIG PINEY      FAIR      26  10  50 VRB3      30.17R
6HR MIN TEMP:   5; 6HR MAX TEMP:  26;

PINEDALE       FAIR      23  10  58 CALM      30.16R
DUBOIS         FAIR      27   3  36 NW9       30.10S WCI  17
LANDER         PTSUNNY   25  19  78 E9        30.19S WCI  15
6HR MIN TEMP:  20; 6HR MAX TEMP:  25;

RIVERTON       FAIR      24  13  62 SE5       30.21R WCI  18
6HR MIN TEMP:  19; 6HR MAX TEMP:  24; 6HR PCP: TRACE;

CASPER         CLOUDY    15   8  73 SW3       30.24S
6HR MIN TEMP:  11; 6HR MAX TEMP:  15; 6HR PCP: TRACE;

DOUGLAS        PTSUNNY   19   6  57 NW22G30   30.24S WCI   2
6HR MIN TEMP:  13; 6HR MAX TEMP:  21; 6HR PCP: TRACE;


$$
WYZ021-027>030-104>119-011900-
SOUTHERN WYOMING

CITY           SKY/WX    TMP DP  RH WIND       PRES   REMARKS
EVANSTON       FAIR      32  19  58 SW14      30.20R WCI  22
6HR MIN TEMP:  20; 6HR MAX TEMP:  32;

KEMMERER       FAIR      28  19  69 W9        30.19  WCI  20
FORT BRIDGER   FAIR      35  18  48 W16G22    30.22R WCI  25
ROCK SPRINGS   FAIR      28  11  48 VRB7      30.18R WCI  21
6HR MIN TEMP:  19; 6HR MAX TEMP:  28;

DIXON          FAIR      28  19  67 SW3       30.21R
RAWLINS        FAIR      26  13  57 NW6       30.17R WCI  19
6HR MIN TEMP:  18; 6HR MAX TEMP:  27; 6HR PCP: TRACE;

SARATOGA       CLOUDY    23  18  80 N5        30.17R WCI  17
LARAMIE        MIX PCPN  20  12  71 NW22      30.10R WCI   3
6HR MIN TEMP:  15; 6HR MAX TEMP:  21; 6HR PCP: TRACE;

CHEYENNE       CLOUDY    19  12  74 N13G23    30.12R WCI   6
6HR MIN TEMP:  13; 6HR MAX TEMP:  19; 6HR PCP: TRACE;

TORRINGTON     FAIR      19   4  51 N23G31    30.25R WCI   2
6HR MIN TEMP:  15; 6HR MAX TEMP:  20;

PINE BLUFFS    MOCLDY    19  12  73 N20G29    30.18R WCI   4

$$



USA.gov is the U.S. government's official web portal to all federal, state and local government web resources and services.